Location: Stuttgart
(48.8069°N, 9.1544°E)
Time: 05:21:07
(UTC+02:00)

ISS - Pass Details

Date: 04 January 2018
Orbit: 402 x 408 km, 51.6° (Epoch: 22 July)

Event Time Altitude Azimuth Distance (km) Brightness Sun altitude
Exits shadow 05:27:43 23° 69° (ENE) 944 -1.4 -26.7°
Drops below altitude 10° 05:29:07 10° 70° (ENE) 1,501 -0.1 -26.5°
Sets 05:31:14 0° 70° (ENE) 2,371 1.1 -26.1°
